Precipitable_Water
1.36 1.37 1.38 1.37 1.35 1.35 1.32 1.27 1.25 1.26 1.35 1.35 1.31 1.35 1.47 1.47 1.50 1.47 1.42 1.41 1.44 1.47 1.50 1.46 1.40 1.40 1.43 1.39 1.31 1.26 1.23 1.22 1.24 1.27 1.24 1.20 1.18 1.16 1.14 1.13 1.13 1.11
1.25 1.30 1.39 1.39 1.37 1.39 1.36 1.28 1.21 1.21 1.27 1.35 1.37 1.38 1.45 1.55 1.58 1.50 1.40 1.39 1.45 1.44 1.49 1.45 1.42 1.43 1.42 1.35 1.29 1.24 1.23 1.24 1.23 1.28 1.20 1.16 1.17 1.16 1.14 1.13 1.12 1.13
1.26 1.28 1.33 1.36 1.31 1.32 1.36 1.33 1.25 1.22 1.25 1.34 1.39 1.40 1.40 1.49 1.54 1.49 1.42 1.41 1.43 1.42 1.45 1.46 1.47 1.45 1.40 1.33 1.29 1.27 1.25 1.23 1.20 1.21 1.18 1.16 1.17 1.14 1.14 1.14 1.12 1.09
1.28 1.39 1.45 1.40 1.30 1.30 1.29 1.30 1.28 1.24 1.27 1.32 1.35 1.39 1.42 1.51 1.52 1.46 1.41 1.42 1.39 1.40 1.48 1.48 1.44 1.44 1.38 1.34 1.33 1.30 1.27 1.23 1.22 1.21 1.17 1.16 1.15 1.14 1.13 1.13 1.12 1.11
1.28 1.24 1.28 1.31 1.32 1.34 1.35 1.32 1.29 1.25 1.23 1.29 1.39 1.41 1.41 1.45 1.46 1.43 1.41 1.40 1.39 1.37 1.42 1.46 1.42 1.39 1.36 1.34 1.32 1.26 1.24 1.22 1.24 1.23 1.17 1.13 1.15 1.14 1.13 1.11 1.09 1.08
1.25 1.24 1.26 1.26 1.34 1.36 1.29 1.31 1.28 1.23 1.21 1.25 1.35 1.40 1.37 1.39 1.38 1.38 1.38 1.38 1.40 1.37 1.36 1.45 1.37 1.35 1.32 1.27 1.25 1.23 1.23 1.21 1.23 1.23 1.19 1.15 1.15 1.18 1.15 1.12 1.09 1.06
1.23 1.27 1.25 1.24 1.28 1.36 1.34 1.32 1.28 1.26 1.28 1.31 1.35 1.36 1.34 1.31 1.31 1.35 1.38 1.42 1.42 1.35 1.30 1.42 1.35 1.30 1.28 1.24 1.23 1.21 1.22 1.21 1.21 1.20 1.17 1.17 1.17 1.16 1.16 1.13 1.10 1.09
1.23 1.24 1.22 1.22 1.26 1.30 1.30 1.31 1.29 1.27 1.33 1.34 1.31 1.33 1.33 1.29 1.30 1.34 1.44 1.39 1.41 1.34 1.32 1.35 1.32 1.28 1.26 1.24 1.20 1.18 1.18 1.20 1.18 1.17 1.16 1.16 1.16 1.12 1.13 1.13 1.13 1.11
1.22 1.24 1.28 1.30 1.30 1.29 1.30 1.32 1.32 1.31 1.37 1.32 1.30 1.30 1.32 1.25 1.28 1.41 1.41 1.40 1.39 1.35 1.33 1.31 1.29 1.25 1.23 1.21 1.19 1.17 1.15 1.16 1.16 1.16 1.15 1.13 1.11 1.11 1.13 1.14 1.12 1.10
1.26 1.27 1.29 1.29 1.27 1.29 1.30 1.31 1.31 1.30 1.34 1.35 1.32 1.31 1.28 1.26 1.31 1.39 1.37 1.37 1.38 1.37 1.30 1.25 1.22 1.19 1.19 1.21 1.20 1.19 1.16 1.14 1.16 1.16 1.17 1.16 1.13 1.13 1.13 1.12 1.09 1.07
1.28 1.29 1.25 1.24 1.23 1.27 1.29 1.31 1.28 1.29 1.33 1.33 1.32 1.30 1.31 1.30 1.30 1.37 1.37 1.31 1.35 1.29 1.23 1.18 1.16 1.13 1.14 1.18 1.22 1.21 1.18 1.17 1.17 1.18 1.18 1.17 1.15 1.15 1.16 1.15 1.13 1.10
1.22 1.25 1.25 1.26 1.26 1.33 1.29 1.30 1.31 1.31 1.31 1.32 1.32 1.29 1.31 1.32 1.30 1.34 1.32 1.30 1.33 1.24 1.15 1.12 1.12 1.14 1.15 1.15 1.17 1.18 1.17 1.18 1.19 1.19 1.19 1.17 1.16 1.16 1.17 1.16 1.14 1.12
1.19 1.19 1.18 1.18 1.21 1.26 1.33 1.32 1.33 1.34 1.33 1.32 1.35 1.33 1.32 1.35 1.35 1.33 1.29 1.34 1.25 1.14 1.10 1.12 1.15 1.16 1.12 1.11 1.11 1.10 1.11 1.10 1.12 1.14 1.14 1.11 1.10 1.10 1.12 1.12 1.10 1.08
1.19 1.20 1.16 1.15 1.16 1.20 1.24 1.31 1.35 1.38 1.39 1.38 1.34 1.32 1.33 1.30 1.30 1.25 1.28 1.28 1.16 1.14 1.15 1.16 1.14 1.10 1.07 1.05 1.05 1.04 1.02 1.02 1.03 1.03 1.01 1.00 1.00 1.01 1.02 1.02 1.02 1.01
1.15 1.15 1.15 1.15 1.17 1.19 1.22 1.26 1.33 1.35 1.37 1.38 1.35 1.32 1.32 1.33 1.29 1.22 1.22 1.18 1.17 1.16 1.11 1.10 1.07 1.04 1.02 1.00 0.99 0.98 0.97 0.95 0.96 0.96 0.95 0.93 0.93 0.92 0.93 0.94 0.96 0.96
1.14 1.12 1.10 1.12 1.15 1.17 1.22 1.27 1.31 1.34 1.35 1.35 1.32 1.32 1.28 1.30 1.22 1.17 1.18 1.15 1.10 1.06 1.06 1.04 1.02 1.01 0.99 0.98 0.98 0.96 0.94 0.93 0.94 0.93 0.92 0.91 0.88 0.86 0.87 0.87 0.88 0.90
1.11 1.10 1.10 1.11 1.16 1.21 1.25 1.29 1.31 1.35 1.35 1.34 1.30 1.25 1.24 1.24 1.15 1.23 1.16 1.13 1.07 1.03 1.02 1.00 1.00 0.99 0.99 1.00 1.01 1.01 0.99 0.95 0.94 0.93 0.93 0.91 0.89 0.87 0.84 0.84 0.84 0.86
1.12 1.12 1.13 1.16 1.20 1.21 1.23 1.31 1.34 1.35 1.33 1.30 1.25 1.20 1.22 1.21 1.22 1.17 1.12 1.09 1.03 1.03 1.03 1.02 1.03 1.04 1.03 1.03 1.03 1.02 1.02 0.99 0.97 0.97 0.98 0.99 0.98 0.95 0.91 0.88 0.86 0.86
1.14 1.14 1.13 1.15 1.18 1.22 1.26 1.30 1.31 1.32 1.27 1.22 1.20 1.17 1.16 1.16 1.16 1.13 1.08 1.04 1.03 1.01 1.03 1.03 1.02 1.03 1.02 1.01 1.00 1.00 1.00 0.99 0.98 0.99 1.00 0.99 1.00 1.00 0.97 0.93 0.90 0.87
1.15 1.16 1.16 1.17 1.21 1.24 1.28 1.25 1.26 1.27 1.20 1.20 1.17 1.14 1.14 1.12 1.07 1.06 1.02 1.01 1.01 1.00 1.00 1.01 1.00 1.01 1.01 1.00 0.97 0.95 0.96 0.98 0.98 0.98 1.00 1.00 1.00 1.01 1.00 0.97 0.94 0.91
1.12 1.14 1.17 1.18 1.19 1.22 1.27 1.24 1.24 1.21 1.16 1.16 1.17 1.13 1.09 1.08 1.03 0.98 0.98 0.96 0.98 1.00 0.99 0.98 0.99 1.00 1.01 1.00 0.97 0.94 0.93 0.94 0.96 0.97 0.98 0.98 1.00 1.01 1.00 0.98 0.96 0.93
1.15 1.18 1.19 1.20 1.19 1.21 1.23 1.22 1.20 1.18 1.13 1.10 1.10 1.07 1.05 1.02 0.96 0.95 0.95 0.95 0.95 0.97 0.97 0.95 0.97 0.99 0.99 0.97 0.93 0.89 0.88 0.88 0.90 0.91 0.92 0.94 0.97 0.98 0.97 0.96 0.94 0.91
1.13 1.15 1.16 1.18 1.16 1.17 1.18 1.20 1.17 1.14 1.13 1.11 1.08 1.05 1.03 0.97 0.93 0.93 0.94 0.95 0.94 0.96 0.95 0.94 0.94 0.94 0.92 0.89 0.87 0.87 0.86 0.85 0.85 0.85 0.86 0.89 0.93 0.96 0.98 0.99 0.98 0.92
1.11 1.14 1.15 1.15 1.14 1.11 1.14 1.14 1.14 1.13 1.09 1.08 1.06 1.03 0.99 0.97 0.96 0.95 0.95 0.94 0.93 0.91 0.90 0.87 0.85 0.88 0.90 0.90 0.91 0.91 0.90 0.88 0.89 0.88 0.88 0.90 0.94 0.97 0.98 0.99 0.98 0.92
1.12 1.14 1.14 1.13 1.10 1.10 1.12 1.11 1.09 1.06 1.06 1.07 1.06 1.03 1.00 0.99 0.97 0.96 0.95 0.95 0.94 0.94 0.93 0.90 0.89 0.90 0.90 0.89 0.90 0.92 0.92 0.94 0.95 0.94 0.93 0.92 0.92 0.92 0.94 0.95 0.94 0.91
1.10 1.12 1.13 1.13 1.11 1.10 1.08 1.06 1.07 1.06 1.07 1.04 1.03 1.01 0.99 0.99 0.97 0.96 0.94 0.93 0.94 0.95 0.95 0.94 0.93 0.93 0.94 0.93 0.91 0.92 0.94 0.99 1.02 1.00 0.96 0.94 0.92 0.90 0.87 0.88 0.88 0.88
Wind_Speed
22 22 21 21 21 21 21 20 19 20 21 21 22 23 24 24 23 23 22 22 22 22 22 22 22 22 21 21 20 19 19 18 18 18 17 17 16 16 16 16 16 16
22 22 22 22 22 21 21 19 19 20 20 21 21 22 23 24 23 22 22 22 22 22 22 22 22 22 22 21 20 20 19 18 18 18 17 17 16 16 16 16 16 16
23 22 23 23 22 21 20 19 19 20 20 20 20 21 22 23 23 22 22 22 22 22 23 23 22 22 22 21 21 20 19 19 18 18 17 17 16 16 16 16 16 16
23 22 22 21 21 21 20 19 19 19 19 20 20 20 21 22 22 22 22 22 22 23 23 23 22 22 21 21 21 20 20 19 18 18 18 17 17 17 16 16 16 16
23 22 21 20 20 20 20 20 20 20 20 20 20 20 21 21 22 22 22 23 22 22 23 23 22 21 21 21 21 20 20 19 19 18 18 18 17 17 17 17 16 16
21 22 21 20 20 20 20 20 20 20 20 20 20 21 21 21 22 23 23 23 22 22 22 22 21 21 21 21 21 20 20 19 19 18 18 17 17 17 17 17 17 17
20 21 22 22 22 21 21 21 21 21 21 21 21 21 21 21 22 23 24 23 23 22 22 22 21 21 21 21 21 21 20 19 19 18 18 17 17 17 17 17 17 17
20 21 22 22 23 22 22 22 21 21 21 21 21 21 21 22 23 24 24 23 23 23 23 22 21 21 21 21 21 21 20 19 19 19 18 18 17 17 17 17 17 17
20 22 22 23 22 23 23 23 23 22 22 22 22 21 21 22 23 24 24 23 24 24 23 22 22 21 21 21 21 21 20 20 19 19 18 18 17 17 17 17 17 17
20 22 23 23 23 23 23 24 24 24 23 23 23 23 23 23 24 24 24 24 25 24 23 23 22 21 21 21 21 21 20 19 19 18 18 17 17 17 17 17 17 17
21 22 23 24 24 24 24 25 25 24 24 24 24 24 25 25 25 24 24 25 25 24 23 22 22 21 21 21 21 21 20 19 18 18 17 17 16 16 16 16 16 16
21 22 23 24 24 24 25 26 26 25 25 24 24 24 25 25 25 25 24 25 25 23 22 22 21 21 21 21 21 21 20 19 18 18 17 17 16 16 16 16 15 15
21 22 23 23 23 24 25 26 26 26 25 25 24 24 25 25 25 25 25 25 25 23 22 21 21 21 21 20 20 20 20 19 18 18 17 16 16 15 15 15 15 15
21 21 22 22 23 23 24 25 25 25 26 25 24 25 25 25 26 26 26 25 24 22 22 22 21 21 20 20 20 20 20 19 18 18 17 17 16 15 15 15 15 15
21 21 21 22 22 23 23 23 24 24 25 24 25 25 26 26 26 27 27 25 23 21 21 21 21 20 20 20 20 19 18 18 17 17 17 16 16 15 15 15 15 15
20 21 21 21 22 22 22 22 23 23 23 24 25 26 26 26 26 27 27 25 22 21 21 21 21 20 20 19 19 18 18 17 17 17 16 16 15 15 14 14 14 15
19 20 20 21 21 21 22 22 22 22 22 23 25 26 26 27 27 27 26 24 21 21 21 21 21 20 20 19 18 17 17 17 16 16 16 15 15 15 14 14 14 15
18 19 19 19 19 20 21 21 21 21 22 23 24 26 27 28 28 27 26 23 21 21 21 21 21 20 19 19 18 17 17 16 16 16 16 15 15 15 15 15 14 15
16 17 17 17 17 18 19 20 20 21 21 22 24 26 27 28 28 27 25 22 21 21 21 21 20 20 19 19 18 17 17 16 16 16 16 16 15 15 15 15 15 15
15 15 16 16 15 15 18 20 20 19 21 22 25 26 27 28 28 26 23 21 22 21 20 20 20 20 19 18 18 17 16 16 16 16 16 16 16 16 16 16 16 15
12 12 13 14 13 13 16 20 20 19 20 22 25 27 28 28 27 24 22 21 22 21 20 20 20 19 19 18 18 17 16 16 16 16 17 17 17 16 16 16 16 16
9 9 10 11 12 13 16 19 19 19 20 23 26 27 27 27 26 23 21 21 21 21 21 20 20 19 19 19 18 17 16 17 17 17 17 17 17 17 17 17 17 16
7 7 8 9 9 11 16 18 18 19 21 24 26 26 25 26 25 22 21 20 21 21 20 20 20 19 19 19 18 17 18 18 18 17 17 17 17 17 17 17 17 17
5 5 7 8 8 9 15 18 17 18 22 24 25 25 25 25 23 22 21 20 21 21 20 20 19 19 19 19 18 18 18 18 18 17 17 17 17 17 17 17 17 16
3 2 4 7 8 9 13 15 15 17 20 23 24 24 24 25 23 22 22 21 21 20 20 19 19 19 19 19 18 18 17 17 17 17 17 17 17 17 16 16 16 16
2 1 3 6 8 10 11 12 14 16 19 21 23 23 23 23 23 22 21 21 20 19 18 18 19 19 18 17 17 17 17 17 18 18 17 17 16 16 15 15 15 16
Wind_Direction
239 238 237 238 237 236 236 239 242 242 239 238 237 237 234 231 228 226 226 227 227 225 223 223 223 221 220 221 221 223 224 224 224 224 224 224 226 226 228 228 228 229
239 240 239 238 236 235 237 241 243 243 241 238 238 238 235 232 228 226 227 229 228 226 224 223 221 220 220 221 221 222 222 222 223 222 222 222 224 226 228 229 228 230
237 240 241 239 236 233 237 242 243 242 242 240 239 238 235 231 229 228 229 230 229 228 225 222 219 218 219 219 220 221 221 221 221 221 221 222 224 226 228 229 229 230
237 240 242 242 238 235 237 240 241 242 243 242 240 238 235 232 230 230 230 230 229 228 224 219 216 216 217 217 218 219 219 220 221 221 221 224 225 227 229 229 230 231
237 239 241 242 240 238 238 238 240 243 244 242 238 236 235 233 231 230 229 228 227 225 221 216 215 215 215 215 217 218 219 220 222 222 223 225 227 228 230 231 231 232
237 236 238 241 241 240 240 240 241 244 244 241 236 235 235 233 232 230 227 225 224 220 215 214 214 215 215 216 216 218 220 221 222 223 224 226 227 229 230 232 233 234
239 238 240 242 242 242 244 244 244 245 243 240 236 234 234 233 232 229 226 223 219 215 212 213 216 217 217 218 218 219 221 222 223 223 225 227 228 230 231 233 234 235
242 243 244 244 242 243 244 244 244 244 241 239 236 234 233 232 231 227 223 219 216 213 213 215 218 219 219 219 219 220 221 223 223 224 226 228 229 231 232 234 235 236
246 246 245 245 245 244 243 243 243 242 240 238 235 232 232 232 229 225 221 218 214 213 215 217 219 219 219 219 219 220 221 222 223 224 226 228 229 232 233 235 236 237
248 247 246 245 246 246 243 242 241 241 239 237 234 232 232 231 226 222 221 217 213 213 215 217 218 218 219 219 219 220 221 221 222 223 225 227 230 232 234 235 237 237
251 249 246 244 244 244 243 241 241 240 238 236 233 232 231 229 223 221 220 215 211 213 215 215 216 217 218 219 219 220 220 220 221 222 224 228 231 232 234 236 237 238
255 252 249 247 247 245 243 241 240 239 237 234 232 229 228 224 220 219 216 211 210 213 214 214 215 216 218 218 218 219 219 220 221 222 224 227 230 232 234 236 237 238
259 255 252 252 251 248 246 242 240 237 235 232 230 227 224 219 216 214 211 208 210 213 214 214 215 215 216 217 218 218 219 220 222 222 224 227 230 232 233 235 237 238
260 257 254 253 252 250 247 243 240 237 233 230 227 223 220 217 214 211 207 207 210 214 215 215 213 213 215 216 216 217 218 220 221 222 224 228 230 232 234 235 237 240
259 257 255 254 252 250 246 242 240 235 230 227 222 218 216 214 211 206 203 205 210 214 214 212 211 213 214 215 214 215 216 218 219 221 224 227 230 233 235 236 238 241
257 255 255 254 252 249 245 240 236 231 225 221 217 213 212 209 206 202 202 205 210 212 211 209 210 212 213 213 213 214 215 217 218 222 225 227 230 232 233 236 239 242
258 255 254 253 251 248 242 237 232 225 220 217 213 210 208 205 202 200 200 204 209 210 208 207 208 209 210 211 213 214 215 217 220 223 225 227 229 230 233 237 240 242
262 256 253 251 250 246 239 233 225 218 215 214 209 206 204 201 200 199 200 205 210 208 205 204 205 207 209 212 214 216 217 220 222 223 224 226 229 230 234 238 241 243
265 257 252 250 249 244 233 224 216 212 212 208 202 200 200 198 197 198 200 206 207 204 202 203 205 209 212 214 216 218 219 222 224 225 226 227 229 232 236 239 242 244
267 256 249 246 245 239 225 214 208 207 209 205 199 198 197 195 195 197 202 206 206 205 204 205 209 213 214 215 217 219 221 223 226 228 229 230 232 235 238 241 243 244
270 252 243 239 238 232 218 208 205 207 207 203 198 196 196 195 195 198 205 208 208 207 206 208 213 216 215 216 219 221 224 227 229 231 232 234 236 239 241 242 243 245
274 250 238 233 232 226 214 207 207 208 204 198 194 193 195 195 196 201 208 210 208 208 208 212 217 219 218 218 221 223 227 230 232 233 234 236 238 240 242 244 244 245
286 257 236 227 228 220 209 205 204 202 198 194 192 193 194 195 198 204 209 209 208 210 212 215 220 222 221 221 223 226 229 231 232 233 235 237 239 241 243 244 244 244
295 260 232 224 224 208 198 197 196 196 196 195 194 195 197 199 203 208 210 211 211 211 214 217 220 221 221 222 225 227 229 231 232 234 235 237 239 242 243 242 241 241
311 261 225 217 211 198 191 193 197 198 197 196 197 199 202 205 210 212 211 212 212 211 213 216 218 219 221 223 225 227 229 232 234 235 236 237 238 239 239 239 238 238
325 259 215 211 207 203 200 202 205 205 203 201 203 207 209 210 212 211 209 209 209 210 213 215 216 218 221 223 225 229 233 235 234 234 233 233 234 234 234 236 236 236